Location: Engelmannsreuth
(49.8125°N, 11.6497°E)
Time: 17:56:15
(UTC+00:00)

STARLINK-1141 - Pass Details

Date: 17 February 2020
Orbit: 548 x 551 km, 53.0° (Epoch: 01 April)

Event Time Altitude Azimuth Distance (km) Brightness Sun altitude
Exits shadow 04:00:10 58° 0° (N) 648 3.9 -23.3°
Drops below altitude 10° 04:04:09 10° 71° (ENE) 1,831 7.4 -22.7°
Enters shadow 05:00:13 -71° 270° (W) 12,620 10.4 -13.6°
Maximum altitude 05:39:59 62° 12° (NNE) 623 3.9 -7.3°
